Tracking 19219 objects as of 20-Jul-2018
HD Live streaming from Space Station
objects crossing your sky now

CZ-3B DEB

Track CZ-3B DEB now!


NORAD ID: 40169
Int'l Code: 2010-042W
Perigee: 1,207.2 km
Apogee: 40,372.8 km
Inclination: 26.0 °
Period: 742.5 minutes
Semi major axis: 27160 km
RCS: Unknown
Launch date: September 4, 2010
Source: People's Republic of China (PRC)
Launch site: Xichang Space Center, China (XSC)

Note: This is SATELLITE DEBRIS
aabbcc
Your satellite tracking list
Your tracking list is empty




NASA's NSSDC Master Catalog

Two Line Element Set (TLE):
1 40169U 10042W   18198.30270931  .00000283  00000-0  00000+0 0  9991
2 40169  25.9845 229.1480 7209889 289.4466 142.2158  1.93947597 41724
Source of the keplerian elements: AFSPC